Zurück zum Katalog

LEMUR 2 LEIA-PHILIP

AktivWissenschaftSSO
NORAD 63246·PAYLOAD·🇺🇸 United States

Gestartet Mar 15, 2025 von Vandenberg Space Force Base

Loading…

Nächste Überflüge (nächste 24 Stunden)

TLE

AktuellSource: Space-Track

Epoche: Sep 14, 2026, 03:27 UTC

1 63246U 25052AN  26257.14400333  .00001885  00000-0  16628-3 0  9993
2 63246  97.6693 147.5481 0002847 308.2393  51.8573 14.97597837 81987

Verfolge LEMUR 2 LEIA-PHILIP in Echtzeit mit AllMySat

Download on the App Store